TimePST,TemperatureF,Dew PointF,Humidity,Sea Level PressureIn,VisibilityMPH,Wind Direction,Wind SpeedMPH,Gust SpeedMPH,PrecipitationIn,Events,Conditions,WindDirDegrees,DateUTC
12:56 AM,52.0,21.0,30,29.97,10.0,Calm,Calm,-,N/A,,Overcast,0,2013-03-03 08:56:00
1:56 AM,53.1,21.9,30,29.96,10.0,Calm,Calm,-,N/A,,Overcast,0,2013-03-03 09:56:00
2:56 AM,51.1,23.0,33,29.95,10.0,NW,6.9,-,N/A,,Overcast,320,2013-03-03 10:56:00
3:56 AM,52.0,30.0,43,29.94,10.0,NNW,12.7,-,0.00,Rain,Light Rain,340,2013-03-03 11:56:00
4:56 AM,48.0,34.0,58,29.96,10.0,NNE,12.7,-,0.00,,Overcast,20,2013-03-03 12:56:00
5:56 AM,46.0,37.0,71,29.95,10.0,North,9.2,-,0.00,Rain,Light Rain,10,2013-03-03 13:56:00
6:56 AM,45.0,37.9,76,29.96,9.0,NNE,6.9,-,0.01,Rain,Light Rain,20,2013-03-03 14:56:00
7:56 AM,45.0,41.0,86,29.98,10.0,North,3.5,-,0.01,Rain,Light Rain,360,2013-03-03 15:56:00
8:56 AM,45.0,42.1,90,29.98,5.0,North,4.6,-,0.02,Rain,Light Rain,350,2013-03-03 16:56:00
9:03 AM,44.6,42.8,93,30.08,5.0,North,4.6,-,0.01,Rain,Light Rain,360,2013-03-03 17:03:00
9:33 AM,46.4,42.8,87,30.07,6.0,NNE,6.9,-,0.04,Rain,Light Rain,30,2013-03-03 17:33:00
9:56 AM,46.0,41.0,83,29.98,10.0,NE,6.9,-,0.04,Rain,Light Rain,40,2013-03-03 17:56:00
10:56 AM,46.0,39.9,79,29.97,6.0,East,4.6,-,0.02,Rain,Light Rain,100,2013-03-03 18:56:00
11:02 AM,46.4,39.2,76,30.06,7.0,East,3.5,-,0.00,Rain,Light Rain,80,2013-03-03 19:02:00
11:56 AM,46.0,39.0,76,29.96,10.0,SE,3.5,-,0.03,Rain,Light Rain,130,2013-03-03 19:56:00
12:56 PM,46.0,41.0,83,29.95,6.0,Calm,Calm,-,0.01,Rain,Light Rain,0,2013-03-03 20:56:00
1:56 PM,46.0,39.9,79,29.94,7.0,WSW,4.6,-,0.02,Rain,Light Rain,250,2013-03-03 21:56:00
2:40 PM,46.4,39.2,76,30.03,10.0,SW,5.8,-,0.00,,Overcast,220,2013-03-03 22:40:00
2:56 PM,48.0,39.9,74,29.94,10.0,Calm,Calm,-,0.00,,Overcast,0,2013-03-03 22:56:00
3:56 PM,48.0,42.1,80,29.92,10.0,South,6.9,-,N/A,,Overcast,180,2013-03-03 23:56:00
4:37 PM,46.4,41.0,81,30.00,10.0,South,9.2,-,N/A,,Overcast,180,2013-03-04 00:37:00
4:56 PM,48.0,41.0,77,29.92,10.0,South,8.1,-,N/A,,Mostly Cloudy,180,2013-03-04 00:56:00
5:56 PM,46.0,41.0,83,29.93,10.0,SSE,6.9,-,N/A,,Mostly Cloudy,160,2013-03-04 01:56:00
6:56 PM,43.0,39.0,86,29.93,10.0,SSE,6.9,-,N/A,,Clear,150,2013-03-04 02:56:00
7:56 PM,39.9,37.9,93,29.93,10.0,South,6.9,-,N/A,,Mostly Cloudy,180,2013-03-04 03:56:00
8:56 PM,41.0,39.0,93,29.93,10.0,South,4.6,-,N/A,,Overcast,190,2013-03-04 04:56:00
9:56 PM,41.0,39.0,93,29.94,10.0,South,5.8,-,N/A,,Overcast,170,2013-03-04 05:56:00
10:56 PM,42.1,39.0,89,29.94,10.0,South,4.6,-,N/A,,Overcast,190,2013-03-04 06:56:00
11:56 PM,42.1,39.0,89,29.94,10.0,SSW,4.6,-,N/A,,Overcast,210,2013-03-04 07:56:00